Time,TemperatureF,DewpointF,PressureIn,WindDirection,WindDirectionDegrees,WindSpeedMPH,WindSpeedGustMPH,Humidity,HourlyPrecipIn,Conditions,Clouds,dailyrainin,SoftwareType,DateUTC
2013-04-23 00:01:00,49.2,27.1,30.35,SSW,200,1.8,9.2,42,0.00,,,0.00,WeatherDisplay:10.37,2013-04-23 04:01:00,
2013-04-23 00:02:00,49.2,27.6,30.35,SE,129,4.0,9.2,43,0.00,,,0.00,WeatherDisplay:10.37,2013-04-23 04:02:00,
2013-04-23 00:07:00,49.1,27.5,30.35,East,91,3.8,10.4,43,0.00,,,0.00,WeatherDisplay:10.37,2013-04-23 04:07:00,
2013-04-23 00:12:00,49.0,27.5,30.35,East,100,3.5,11.5,43,0.00,,,0.00,WeatherDisplay:10.37,2013-04-23 04:12:00,
2013-04-23 00:17:00,49.0,27.5,30.35,SW,215,4.6,11.5,43,0.00,,,0.00,WeatherDisplay:10.37,2013-04-23 04:17:00,
2013-04-23 00:22:00,49.0,27.5,30.35,NNE,23,2.6,12.0,43,0.00,,,0.00,WeatherDisplay:10.37,2013-04-23 04:22:00,
2013-04-23 00:27:00,48.8,27.3,30.35,South,173,1.8,12.0,43,0.00,,,0.00,WeatherDisplay:10.37,2013-04-23 04:27:00,
2013-04-23 00:32:00,48.6,27.6,30.35,ENE,78,2.9,12.0,44,0.00,,,0.00,WeatherDisplay:10.37,2013-04-23 04:32:00,
2013-04-23 00:37:00,48.5,27.6,30.35,SSE,165,3.0,12.0,44,0.00,,,0.00,WeatherDisplay:10.37,2013-04-23 04:37:00,
2013-04-23 00:42:00,48.4,27.5,30.35,SSE,149,3.2,12.0,44,0.00,,,0.00,WeatherDisplay:10.37,2013-04-23 04:42:00,
2013-04-23 00:47:00,48.3,27.9,30.36,ESE,107,2.7,12.0,45,0.00,,,0.00,WeatherDisplay:10.37,2013-04-23 04:47:00,
2013-04-23 00:52:00,48.2,27.8,30.36,NNW,348,2.9,12.0,45,0.00,,,0.00,WeatherDisplay:10.37,2013-04-23 04:52:00,
2013-04-23 00:57:00,48.1,28.3,30.36,ESE,107,2.9,12.0,46,0.00,,,0.00,WeatherDisplay:10.37,2013-04-23 04:57:00,
2013-04-23 01:02:00,48.0,28.2,30.36,NW,325,1.7,12.0,46,0.00,,,0.00,WeatherDisplay:10.37,2013-04-23 05:02:00,
2013-04-23 01:07:00,48.0,28.2,30.35,ESE,110,3.5,12.0,46,0.00,,,0.00,WeatherDisplay:10.37,2013-04-23 05:07:00,
2013-04-23 01:12:00,47.9,28.6,30.35,SW,233,2.4,12.0,47,0.00,,,0.00,WeatherDisplay:10.37,2013-04-23 05:12:00,
2013-04-23 01:17:00,47.7,28.4,30.35,ENE,68,4.3,12.0,47,0.00,,,0.00,WeatherDisplay:10.37,2013-04-23 05:17:00,
2013-04-23 01:22:00,47.6,28.9,30.36,East,95,2.0,12.0,48,0.00,,,0.00,WeatherDisplay:10.37,2013-04-23 05:22:00,
2013-04-23 01:27:00,47.5,28.8,30.35,East,92,1.8,12.0,48,0.00,,,0.00,WeatherDisplay:10.37,2013-04-23 05:27:00,
2013-04-23 01:32:00,47.3,29.1,30.36,South,177,4.1,12.0,49,0.00,,,0.00,WeatherDisplay:10.37,2013-04-23 05:32:00,
2013-04-23 01:37:00,47.3,29.1,30.35,SSE,163,3.5,12.0,49,0.00,,,0.00,WeatherDisplay:10.37,2013-04-23 05:37:00,
2013-04-23 01:42:00,47.2,29.0,30.35,SSW,203,2.6,12.0,49,0.00,,,0.00,WeatherDisplay:10.37,2013-04-23 05:42:00,
2013-04-23 01:47:00,47.1,28.9,30.35,South,181,2.8,12.0,49,0.00,,,0.00,WeatherDisplay:10.37,2013-04-23 05:47:00,
2013-04-23 01:52:00,47.1,29.4,30.35,South,186,2.8,12.0,50,0.00,,,0.00,WeatherDisplay:10.37,2013-04-23 05:52:00,
2013-04-23 01:57:00,46.8,29.1,30.35,SSW,203,1.4,12.0,50,0.00,,,0.00,WeatherDisplay:10.37,2013-04-23 05:57:00,
2013-04-23 02:02:00,46.7,29.5,30.35,South,179,1.9,12.0,51,0.00,,,0.00,WeatherDisplay:10.37,2013-04-23 06:02:00,
2013-04-23 02:07:00,46.5,29.3,30.35,SW,227,1.9,12.0,51,0.00,,,0.00,WeatherDisplay:10.37,2013-04-23 06:07:00,
2013-04-23 02:12:00,46.4,29.7,30.35,East,89,2.5,12.0,52,0.00,,,0.00,WeatherDisplay:10.37,2013-04-23 06:12:00,
2013-04-23 02:17:00,46.3,29.6,30.35,SSW,198,1.5,12.0,52,0.00,,,0.00,WeatherDisplay:10.37,2013-04-23 06:17:00,
2013-04-23 02:22:00,46.0,29.8,30.35,South,173,2.1,12.0,53,0.00,,,0.00,WeatherDisplay:10.37,2013-04-23 06:22:00,
2013-04-23 02:27:00,45.9,29.7,30.34,SSE,156,2.4,12.0,53,0.00,,,0.00,WeatherDisplay:10.37,2013-04-23 06:27:00,
2013-04-23 02:32:00,45.7,29.5,30.34,SE,146,0.7,12.0,53,0.00,,,0.00,WeatherDisplay:10.37,2013-04-23 06:32:00,
2013-04-23 02:37:00,45.6,29.9,30.34,SW,222,3.4,12.0,54,0.00,,,0.00,WeatherDisplay:10.37,2013-04-23 06:37:00,
2013-04-23 02:42:00,45.5,29.8,30.34,SSW,193,0.9,12.0,54,0.00,,,0.00,WeatherDisplay:10.37,2013-04-23 06:42:00,
2013-04-23 02:47:00,45.3,29.6,30.34,SSW,210,2.0,12.0,54,0.00,,,0.00,WeatherDisplay:10.37,2013-04-23 06:47:00,
2013-04-23 02:52:00,45.1,29.9,30.34,SW,225,2.3,12.0,55,0.00,,,0.00,WeatherDisplay:10.37,2013-04-23 06:52:00,
2013-04-23 02:57:00,44.9,30.1,30.34,SSW,205,1.9,12.0,56,0.00,,,0.00,WeatherDisplay:10.37,2013-04-23 06:57:00,
2013-04-23 03:02:00,44.6,29.9,30.34,SSE,149,2.1,12.0,56,0.00,,,0.00,WeatherDisplay:10.37,2013-04-23 07:02:00,
2013-04-23 03:07:00,44.4,30.1,30.34,SSW,197,0.4,12.0,57,0.00,,,0.00,WeatherDisplay:10.37,2013-04-23 07:07:00,
2013-04-23 03:12:00,44.3,30.0,30.34,South,172,2.3,12.0,57,0.00,,,0.00,WeatherDisplay:10.37,2013-04-23 07:12:00,
2013-04-23 03:17:00,44.1,30.3,30.34,SW,219,2.2,12.0,58,0.00,,,0.00,WeatherDisplay:10.37,2013-04-23 07:17:00,
2013-04-23 03:22:00,44.1,30.3,30.34,South,179,1.0,12.0,58,0.00,,,0.00,WeatherDisplay:10.37,2013-04-23 07:22:00,
2013-04-23 03:27:00,43.9,30.1,30.34,SE,132,1.9,12.0,58,0.00,,,0.00,WeatherDisplay:10.37,2013-04-23 07:27:00,
2013-04-23 03:32:00,43.8,30.4,30.34,SE,132,1.9,12.0,59,0.00,,,0.00,WeatherDisplay:10.37,2013-04-23 07:32:00,
2013-04-23 03:37:00,43.7,30.3,30.34,ESE,121,3.3,12.0,59,0.00,,,0.00,WeatherDisplay:10.37,2013-04-23 07:37:00,
2013-04-23 03:42:00,43.6,30.2,30.34,SSE,165,2.4,12.0,59,0.00,,,0.00,WeatherDisplay:10.37,2013-04-23 07:42:00,
2013-04-23 03:47:00,43.4,30.4,30.34,SSW,197,0.7,12.0,60,0.00,,,0.00,WeatherDisplay:10.37,2013-04-23 07:47:00,
2013-04-23 03:52:00,43.3,30.3,30.34,ESE,102,1.5,12.0,60,0.00,,,0.00,WeatherDisplay:10.37,2013-04-23 07:52:00,
2013-04-23 03:57:00,43.1,30.6,30.33,SSW,205,2.4,12.0,61,0.00,,,0.00,WeatherDisplay:10.37,2013-04-23 07:57:00,
2013-04-23 04:02:00,42.9,30.4,30.34,SSW,204,1.2,12.0,61,0.00,,,0.00,WeatherDisplay:10.37,2013-04-23 08:02:00,
2013-04-23 04:07:00,42.7,30.6,30.34,East,100,1.9,12.0,62,0.00,,,0.00,WeatherDisplay:10.37,2013-04-23 08:07:00,
2013-04-23 04:12:00,42.5,30.4,30.34,South,172,1.6,12.0,62,0.00,,,0.00,WeatherDisplay:10.37,2013-04-23 08:12:00,
2013-04-23 04:17:00,42.4,30.7,30.34,East,99,2.8,12.0,63,0.00,,,0.00,WeatherDisplay:10.37,2013-04-23 08:17:00,
2013-04-23 04:22:00,42.3,30.6,30.34,SSE,167,0.8,12.0,63,0.00,,,0.00,WeatherDisplay:10.37,2013-04-23 08:22:00,
2013-04-23 04:27:00,42.3,30.6,30.34,ESE,120,1.2,12.0,63,0.00,,,0.00,WeatherDisplay:10.37,2013-04-23 08:27:00,
2013-04-23 04:32:00,42.1,30.8,30.34,SE,128,1.4,12.0,64,0.00,,,0.00,WeatherDisplay:10.37,2013-04-23 08:32:00,
2013-04-23 04:37:00,42.0,30.7,30.34,SE,146,2.0,12.0,64,0.00,,,0.00,WeatherDisplay:10.37,2013-04-23 08:37:00,
2013-04-23 04:42:00,41.9,31.0,30.33,SE,128,2.2,12.0,65,0.00,,,0.00,WeatherDisplay:10.37,2013-04-23 08:42:00,
2013-04-23 04:47:00,41.7,31.2,30.33,SSW,195,2.9,12.0,66,0.00,,,0.00,WeatherDisplay:10.37,2013-04-23 08:47:00,
2013-04-23 04:52:00,41.6,31.1,30.33,East,91,1.5,12.0,66,0.00,,,0.00,WeatherDisplay:10.37,2013-04-23 08:52:00,
2013-04-23 04:57:00,41.4,30.9,30.33,SW,229,4.3,12.0,66,0.00,,,0.00,WeatherDisplay:10.37,2013-04-23 08:57:00,
2013-04-23 05:02:00,41.4,31.3,30.33,ENE,69,1.9,12.0,67,0.00,,,0.00,WeatherDisplay:10.37,2013-04-23 09:02:00,
2013-04-23 05:07:00,41.3,31.2,30.33,SSW,192,3.1,12.0,67,0.00,,,0.00,WeatherDisplay:10.37,2013-04-23 09:07:00,
2013-04-23 05:12:00,41.3,31.2,30.33,South,181,2.0,12.0,67,0.00,,,0.00,WeatherDisplay:10.37,2013-04-23 09:12:00,
2013-04-23 05:17:00,41.2,31.1,30.33,SE,142,2.1,12.0,67,0.00,,,0.00,WeatherDisplay:10.37,2013-04-23 09:17:00,
2013-04-23 05:22:00,41.2,31.1,30.33,South,176,2.6,12.0,67,0.00,,,0.00,WeatherDisplay:10.37,2013-04-23 09:22:00,
2013-04-23 05:27:00,41.2,31.1,30.33,SE,136,2.3,12.0,67,0.00,,,0.00,WeatherDisplay:10.37,2013-04-23 09:27:00,
2013-04-23 05:32:00,41.1,31.0,30.33,SE,141,2.9,12.0,67,0.00,,,0.00,WeatherDisplay:10.37,2013-04-23 09:32:00,
2013-04-23 05:37:00,41.0,30.9,30.33,SSW,195,1.6,12.0,67,0.00,,,0.00,WeatherDisplay:10.37,2013-04-23 09:37:00,
2013-04-23 05:42:00,40.9,30.8,30.32,SSE,160,3.5,12.0,67,0.00,,,0.00,WeatherDisplay:10.37,2013-04-23 09:42:00,
2013-04-23 05:47:00,40.8,31.1,30.32,ESE,107,2.8,12.0,68,0.00,,,0.00,WeatherDisplay:10.37,2013-04-23 09:47:00,
2013-04-23 05:52:00,40.7,31.0,30.32,East,96,3.3,12.0,68,0.00,,,0.00,WeatherDisplay:10.37,2013-04-23 09:52:00,
2013-04-23 05:57:00,40.6,30.9,30.32,ENE,68,3.1,12.0,68,0.00,,,0.00,WeatherDisplay:10.37,2013-04-23 09:57:00,
2013-04-23 06:02:00,40.4,30.7,30.32,SW,215,2.6,12.0,68,0.00,,,0.00,WeatherDisplay:10.37,2013-04-23 10:02:00,
2013-04-23 06:07:00,40.3,30.9,30.32,South,170,2.5,12.0,69,0.00,,,0.00,WeatherDisplay:10.37,2013-04-23 10:07:00,
2013-04-23 06:12:00,40.2,30.8,30.32,South,190,2.5,12.0,69,0.00,,,0.00,WeatherDisplay:10.37,2013-04-23 10:12:00,
2013-04-23 06:17:00,39.9,30.5,30.32,SSE,167,2.5,12.0,69,0.00,,,0.00,WeatherDisplay:10.37,2013-04-23 10:17:00,
2013-04-23 06:22:00,39.8,30.8,30.32,East,89,2.1,12.0,70,0.00,,,0.00,WeatherDisplay:10.37,2013-04-23 10:22:00,
2013-04-23 06:27:00,39.7,30.7,30.32,East,88,1.7,12.0,70,0.00,,,0.00,WeatherDisplay:10.37,2013-04-23 10:27:00,
2013-04-23 06:32:00,39.5,30.9,30.32,East,94,1.2,12.0,71,0.00,,,0.00,WeatherDisplay:10.37,2013-04-23 10:32:00,
2013-04-23 06:37:00,39.5,30.9,30.32,ENE,75,1.5,12.0,71,0.00,,,0.00,WeatherDisplay:10.37,2013-04-23 10:37:00,
2013-04-23 06:42:00,39.5,30.9,30.32,East,99,1.1,12.0,71,0.00,,,0.00,WeatherDisplay:10.37,2013-04-23 10:42:00,
2013-04-23 06:47:00,40.0,31.0,30.32,East,85,1.0,12.0,70,0.00,,,0.00,WeatherDisplay:10.37,2013-04-23 10:47:00,
2013-04-23 06:52:00,40.5,31.1,30.32,SW,222,0.6,12.0,69,0.00,,,0.00,WeatherDisplay:10.37,2013-04-23 10:52:00,
2013-04-23 06:57:00,40.9,31.1,30.32,ESE,116,1.0,12.0,68,0.00,,,0.00,WeatherDisplay:10.37,2013-04-23 10:57:00,
2013-04-23 07:02:00,41.3,31.5,30.32,SSW,205,2.4,12.0,68,0.00,,,0.00,WeatherDisplay:10.37,2013-04-23 11:02:00,
2013-04-23 07:07:00,41.5,31.4,30.32,NE,37,2.0,12.0,67,0.00,,,0.00,WeatherDisplay:10.37,2013-04-23 11:07:00,
2013-04-23 07:12:00,41.4,31.3,30.32,ENE,76,0.6,12.0,67,0.00,,,0.00,WeatherDisplay:10.37,2013-04-23 11:12:00,
2013-04-23 07:17:00,41.4,31.3,30.32,ESE,103,4.5,12.0,67,0.00,,,0.00,WeatherDisplay:10.37,2013-04-23 11:17:00,
2013-04-23 07:22:00,41.6,31.1,30.32,East,101,3.0,12.0,66,0.00,,,0.00,WeatherDisplay:10.37,2013-04-23 11:22:00,
2013-04-23 07:27:00,41.5,30.6,30.32,ESE,106,1.9,12.0,65,0.00,,,0.00,WeatherDisplay:10.37,2013-04-23 11:27:00,
2013-04-23 07:32:00,41.6,31.1,30.32,ESE,106,0.7,12.0,66,0.00,,,0.00,WeatherDisplay:10.37,2013-04-23 11:32:00,
2013-04-23 07:37:00,42.0,31.1,30.32,SSW,197,1.9,12.0,65,0.00,,,0.00,WeatherDisplay:10.37,2013-04-23 11:37:00,
2013-04-23 07:42:00,41.8,30.9,30.32,SE,135,3.2,12.0,65,0.00,,,0.00,WeatherDisplay:10.37,2013-04-23 11:42:00,
2013-04-23 07:47:00,41.7,30.8,30.32,SE,125,3.9,12.0,65,0.00,,,0.00,WeatherDisplay:10.37,2013-04-23 11:47:00,
2013-04-23 07:52:00,42.0,31.1,30.32,SSW,203,2.2,12.0,65,0.00,,,0.00,WeatherDisplay:10.37,2013-04-23 11:52:00,
2013-04-23 07:57:00,42.6,31.3,30.32,ESE,118,1.6,12.0,64,0.00,,,0.00,WeatherDisplay:10.37,2013-04-23 11:57:00,
2013-04-23 08:02:00,43.2,31.8,30.31,SW,228,1.7,12.0,64,0.00,,,0.00,WeatherDisplay:10.37,2013-04-23 12:02:00,
2013-04-23 08:07:00,43.6,31.4,30.31,East,85,4.3,12.0,62,0.00,,,0.00,WeatherDisplay:10.37,2013-04-23 12:07:00,
2013-04-23 08:12:00,43.9,31.7,30.31,ESE,116,0.6,12.0,62,0.00,,,0.00,WeatherDisplay:10.37,2013-04-23 12:12:00,
2013-04-23 08:17:00,44.4,31.8,30.31,SSW,210,2.3,12.0,61,0.00,,,0.00,WeatherDisplay:10.37,2013-04-23 12:17:00,
2013-04-23 08:22:00,44.4,31.8,30.31,SE,131,2.3,12.0,61,0.00,,,0.00,WeatherDisplay:10.37,2013-04-23 12:22:00,
2013-04-23 08:27:00,44.7,32.1,30.31,SE,134,3.1,12.0,61,0.00,,,0.00,WeatherDisplay:10.37,2013-04-23 12:27:00,
2013-04-23 08:32:00,44.7,32.1,30.30,West,278,3.4,12.0,61,0.00,,,0.00,WeatherDisplay:10.37,2013-04-23 12:32:00,
2013-04-23 08:37:00,45.1,32.0,30.30,ENE,68,4.5,12.0,60,0.00,,,0.00,WeatherDisplay:10.37,2013-04-23 12:37:00,
2013-04-23 08:42:00,45.2,32.9,30.30,SSW,207,1.3,12.0,62,0.00,,,0.00,WeatherDisplay:10.37,2013-04-23 12:42:00,
2013-04-23 08:47:00,45.3,32.2,30.30,East,92,3.1,12.0,60,0.00,,,0.00,WeatherDisplay:10.37,2013-04-23 12:47:00,
2013-04-23 08:52:00,45.6,32.5,30.29,ESE,110,2.7,12.0,60,0.00,,,0.00,WeatherDisplay:10.37,2013-04-23 12:52:00,
2013-04-23 08:57:00,46.2,32.7,30.29,East,85,2.2,12.0,59,0.00,,,0.00,WeatherDisplay:10.37,2013-04-23 12:57:00,
2013-04-23 09:02:00,46.3,32.7,30.29,SE,124,2.6,12.0,59,0.00,,,0.00,WeatherDisplay:10.37,2013-04-23 13:02:00,
2013-04-23 09:07:00,46.8,32.8,30.28,SSE,150,1.7,12.0,58,0.00,,,0.00,WeatherDisplay:10.37,2013-04-23 13:07:00,
2013-04-23 09:12:00,47.5,34.3,30.28,SW,222,1.1,12.0,60,0.00,,,0.00,WeatherDisplay:10.37,2013-04-23 13:12:00,
2013-04-23 09:17:00,47.8,33.3,30.28,ENE,64,3.9,12.0,57,0.00,,,0.00,WeatherDisplay:10.37,2013-04-23 13:17:00,
2013-04-23 09:22:00,47.5,33.0,30.28,SSE,155,2.7,12.0,57,0.00,,,0.00,WeatherDisplay:10.37,2013-04-23 13:22:00,
2013-04-23 09:27:00,47.6,33.1,30.27,SSE,153,4.3,12.0,57,0.00,,,0.00,WeatherDisplay:10.37,2013-04-23 13:27:00,
2013-04-23 09:32:00,47.9,32.9,30.27,ESE,103,2.7,12.0,56,0.00,,,0.00,WeatherDisplay:10.37,2013-04-23 13:32:00,
2013-04-23 09:37:00,47.7,33.2,30.27,WSW,243,1.5,12.0,57,0.00,,,0.00,WeatherDisplay:10.37,2013-04-23 13:37:00,
2013-04-23 09:42:00,47.8,33.3,30.26,ESE,110,6.3,12.0,57,0.00,,,0.00,WeatherDisplay:10.37,2013-04-23 13:42:00,
2013-04-23 09:47:00,47.7,33.2,30.26,SSE,156,2.8,12.0,57,0.00,,,0.00,WeatherDisplay:10.37,2013-04-23 13:47:00,
2013-04-23 09:52:00,48.1,33.6,30.26,ESE,118,3.1,12.0,57,0.00,,,0.00,WeatherDisplay:10.37,2013-04-23 13:52:00,
2013-04-23 09:57:00,48.2,33.2,30.26,SSW,194,4.8,12.0,56,0.00,,,0.00,WeatherDisplay:10.37,2013-04-23 13:57:00,
2013-04-23 10:02:00,48.3,33.8,30.26,SE,136,5.6,12.0,57,0.00,,,0.00,WeatherDisplay:10.37,2013-04-23 14:02:00,
2013-04-23 10:07:00,48.2,33.7,30.26,ESE,106,3.7,12.0,57,0.00,,,0.00,WeatherDisplay:10.37,2013-04-23 14:07:00,
2013-04-23 10:12:00,48.4,33.9,30.25,SE,146,3.5,12.0,57,0.00,,,0.00,WeatherDisplay:10.37,2013-04-23 14:12:00,
2013-04-23 10:17:00,48.9,34.3,30.25,SSE,153,2.1,12.0,57,0.00,,,0.00,WeatherDisplay:10.37,2013-04-23 14:17:00,
2013-04-23 10:22:00,49.3,34.7,30.25,SE,142,4.7,12.0,57,0.00,,,0.00,WeatherDisplay:10.37,2013-04-23 14:22:00,
2013-04-23 10:27:00,49.5,34.4,30.25,ENE,74,4.2,12.0,56,0.00,,,0.00,WeatherDisplay:10.37,2013-04-23 14:27:00,
2013-04-23 10:32:00,49.5,34.0,30.25,East,91,3.0,12.0,55,0.00,,,0.00,WeatherDisplay:10.37,2013-04-23 14:32:00,
2013-04-23 10:37:00,49.9,34.4,30.25,East,85,5.1,12.0,55,0.00,,,0.00,WeatherDisplay:10.37,2013-04-23 14:37:00,
2013-04-23 10:42:00,49.9,33.9,30.25,SSE,159,4.5,12.0,54,0.00,,,0.00,WeatherDisplay:10.37,2013-04-23 14:42:00,
2013-04-23 10:47:00,50.1,33.6,30.25,SW,218,3.8,12.0,53,0.00,,,0.00,WeatherDisplay:10.37,2013-04-23 14:47:00,
2013-04-23 10:52:00,50.6,35.0,30.25,East,98,3.4,12.0,55,0.00,,,0.00,WeatherDisplay:10.37,2013-04-23 14:52:00,
2013-04-23 10:57:00,50.8,34.7,30.25,ESE,113,2.9,12.0,54,0.00,,,0.00,WeatherDisplay:10.37,2013-04-23 14:57:00,
2013-04-23 11:02:00,51.4,35.3,30.24,SE,131,1.5,12.0,54,0.00,,,0.00,WeatherDisplay:10.37,2013-04-23 15:02:00,
2013-04-23 11:07:00,51.5,35.4,30.24,East,94,4.3,12.0,54,0.00,,,0.00,WeatherDisplay:10.37,2013-04-23 15:07:00,
2013-04-23 11:12:00,51.6,35.0,30.24,ESE,110,4.6,12.0,53,0.00,,,0.00,WeatherDisplay:10.37,2013-04-23 15:12:00,
2013-04-23 11:17:00,52.0,36.3,30.24,East,94,4.2,12.0,55,0.00,,,0.00,WeatherDisplay:10.37,2013-04-23 15:17:00,
2013-04-23 11:22:00,52.2,35.6,30.23,East,81,4.7,12.0,53,0.00,,,0.00,WeatherDisplay:10.37,2013-04-23 15:22:00,
2013-04-23 11:27:00,51.7,35.6,30.23,ESE,106,5.0,12.0,54,0.00,,,0.00,WeatherDisplay:10.37,2013-04-23 15:27:00,
2013-04-23 11:32:00,51.8,35.2,30.23,ESE,122,3.5,12.0,53,0.00,,,0.00,WeatherDisplay:10.37,2013-04-23 15:32:00,
2013-04-23 11:37:00,52.4,35.3,30.23,SW,232,3.1,12.0,52,0.00,,,0.00,WeatherDisplay:10.37,2013-04-23 15:37:00,
2013-04-23 11:42:00,52.8,36.1,30.22,NNE,30,2.2,12.0,53,0.00,,,0.00,WeatherDisplay:10.37,2013-04-23 15:42:00,
2013-04-23 11:47:00,52.9,35.2,30.22,East,95,4.4,12.0,51,0.00,,,0.00,WeatherDisplay:10.37,2013-04-23 15:47:00,
2013-04-23 11:52:00,53.1,35.4,30.22,ENE,68,1.4,12.0,51,0.00,,,0.00,WeatherDisplay:10.37,2013-04-23 15:52:00,
2013-04-23 11:57:00,53.7,36.0,30.22,East,89,2.5,12.0,51,0.00,,,0.00,WeatherDisplay:10.37,2013-04-23 15:57:00,
2013-04-23 12:02:00,53.8,36.6,30.21,SSW,211,2.9,12.0,52,0.00,,,0.00,WeatherDisplay:10.37,2013-04-23 16:02:00,
2013-04-23 12:07:00,53.9,36.2,30.21,ENE,63,5.2,12.0,51,0.00,,,0.00,WeatherDisplay:10.37,2013-04-23 16:07:00,
2013-04-23 12:12:00,53.2,37.0,30.21,NNE,22,3.2,15.0,54,0.00,,,0.00,WeatherDisplay:10.37,2013-04-23 16:12:00,
2013-04-23 12:17:00,53.6,36.4,30.21,East,82,3.4,15.0,52,0.00,,,0.00,WeatherDisplay:10.37,2013-04-23 16:17:00,
2013-04-23 12:22:00,53.8,35.1,30.20,ESE,110,4.5,15.0,49,0.00,,,0.00,WeatherDisplay:10.37,2013-04-23 16:22:00,
2013-04-23 12:27:00,54.4,36.6,30.20,South,176,2.6,15.0,51,0.00,,,0.00,WeatherDisplay:10.37,2013-04-23 16:27:00,
2013-04-23 12:32:00,54.7,35.4,30.20,SW,221,2.1,15.0,48,0.00,,,0.00,WeatherDisplay:10.37,2013-04-23 16:32:00,
2013-04-23 12:37:00,54.8,37.0,30.20,East,85,4.5,15.0,51,0.00,,,0.00,WeatherDisplay:10.37,2013-04-23 16:37:00,
2013-04-23 12:42:00,54.7,36.9,30.20,SSE,149,3.2,15.0,51,0.00,,,0.00,WeatherDisplay:10.37,2013-04-23 16:42:00,
2013-04-23 12:47:00,54.9,37.1,30.21,ENE,68,2.9,15.0,51,0.00,,,0.00,WeatherDisplay:10.37,2013-04-23 16:47:00,
2013-04-23 12:52:00,55.3,37.5,30.20,East,88,3.0,15.0,51,0.00,,,0.00,WeatherDisplay:10.37,2013-04-23 16:52:00,
2013-04-23 12:57:00,55.6,38.7,30.20,SSW,197,2.4,15.0,53,0.00,,,0.00,WeatherDisplay:10.37,2013-04-23 16:57:00,
2013-04-23 13:02:00,56.4,36.9,30.20,SSE,155,2.4,15.0,48,0.00,,,0.00,WeatherDisplay:10.37,2013-04-23 17:02:00,
2013-04-23 13:07:00,56.7,38.3,30.19,NE,49,3.5,15.0,50,0.00,,,0.00,WeatherDisplay:10.37,2013-04-23 17:07:00,
2013-04-23 13:12:00,56.6,36.6,30.19,SE,128,3.2,15.0,47,0.00,,,0.00,WeatherDisplay:10.37,2013-04-23 17:12:00,
2013-04-23 13:17:00,56.8,36.8,30.19,SW,221,6.8,15.0,47,0.00,,,0.00,WeatherDisplay:10.37,2013-04-23 17:17:00,
2013-04-23 13:22:00,56.6,36.0,30.18,East,100,4.6,15.0,46,0.00,,,0.00,WeatherDisplay:10.37,2013-04-23 17:22:00,
2013-04-23 13:27:00,56.4,36.4,30.18,ESE,110,2.9,16.1,47,0.00,,,0.00,WeatherDisplay:10.37,2013-04-23 17:27:00,
2013-04-23 13:32:00,57.1,37.0,30.18,SE,145,4.5,16.1,47,0.00,,,0.00,WeatherDisplay:10.37,2013-04-23 17:32:00,
2013-04-23 13:37:00,57.2,37.7,30.19,SW,221,1.7,16.1,48,0.00,,,0.00,WeatherDisplay:10.37,2013-04-23 17:37:00,
2013-04-23 13:42:00,57.5,37.4,30.19,South,190,1.3,16.1,47,0.00,,,0.00,WeatherDisplay:10.37,2013-04-23 17:42:00,
2013-04-23 13:47:00,57.7,36.5,30.19,East,85,3.9,16.1,45,0.00,,,0.00,WeatherDisplay:10.37,2013-04-23 17:47:00,
2013-04-23 13:52:00,58.2,38.1,30.19,SSE,168,1.4,16.1,47,0.00,,,0.00,WeatherDisplay:10.37,2013-04-23 17:52:00,
2013-04-23 13:57:00,58.1,36.9,30.19,SE,146,3.8,16.1,45,0.00,,,0.00,WeatherDisplay:10.37,2013-04-23 17:57:00,
2013-04-23 14:02:00,58.2,38.6,30.18,WSW,249,2.6,16.1,48,0.00,,,0.00,WeatherDisplay:10.37,2013-04-23 18:02:00,
2013-04-23 14:07:00,58.0,35.6,30.18,SE,124,2.8,16.1,43,0.00,,,0.00,WeatherDisplay:10.37,2013-04-23 18:07:00,
2013-04-23 14:12:00,58.6,40.0,30.17,ENE,74,2.5,16.1,50,0.00,,,0.00,WeatherDisplay:10.37,2013-04-23 18:12:00,
2013-04-23 14:17:00,58.1,37.4,30.17,SE,145,2.2,16.1,46,0.00,,,0.00,WeatherDisplay:10.37,2013-04-23 18:17:00,
2013-04-23 14:22:00,58.8,38.6,30.17,East,95,0.3,16.1,47,0.00,,,0.00,WeatherDisplay:10.37,2013-04-23 18:22:00,
2013-04-23 14:27:00,58.6,37.3,30.16,ENE,77,6.8,16.1,45,0.00,,,0.00,WeatherDisplay:10.37,2013-04-23 18:27:00,
2013-04-23 14:32:00,58.6,36.7,30.16,ENE,63,6.2,16.1,44,0.00,,,0.00,WeatherDisplay:10.37,2013-04-23 18:32:00,
2013-04-23 14:37:00,58.5,37.2,30.15,NE,44,5.5,16.1,45,0.00,,,0.00,WeatherDisplay:10.37,2013-04-23 18:37:00,
2013-04-23 14:42:00,58.8,38.1,30.14,ENE,62,3.7,16.1,46,0.00,,,0.00,WeatherDisplay:10.37,2013-04-23 18:42:00,
2013-04-23 14:47:00,59.1,37.8,30.13,NE,56,3.4,16.1,45,0.00,,,0.00,WeatherDisplay:10.37,2013-04-23 18:47:00,
2013-04-23 14:52:00,59.3,36.8,30.13,ENE,63,6.0,16.1,43,0.00,,,0.00,WeatherDisplay:10.37,2013-04-23 18:52:00,
2013-04-23 14:57:00,58.9,37.0,30.13,ESE,107,7.3,16.1,44,0.00,,,0.00,WeatherDisplay:10.37,2013-04-23 18:57:00,
2013-04-23 15:02:00,59.1,37.8,30.12,ENE,60,6.8,16.1,45,0.00,,,0.00,WeatherDisplay:10.37,2013-04-23 19:02:00,
2013-04-23 15:07:00,59.4,38.0,30.11,NE,53,5.1,16.1,45,0.00,,,0.00,WeatherDisplay:10.37,2013-04-23 19:07:00,
2013-04-23 15:12:00,59.5,38.1,30.11,East,101,4.0,16.1,45,0.00,,,0.00,WeatherDisplay:10.37,2013-04-23 19:12:00,
2013-04-23 15:17:00,59.6,37.6,30.11,SSE,153,6.7,16.1,44,0.00,,,0.00,WeatherDisplay:10.37,2013-04-23 19:17:00,
2013-04-23 15:22:00,60.1,39.2,30.10,ENE,68,3.9,16.1,46,0.00,,,0.00,WeatherDisplay:10.37,2013-04-23 19:22:00,
2013-04-23 15:27:00,60.3,37.1,30.10,SSE,165,5.8,16.1,42,0.00,,,0.00,WeatherDisplay:10.37,2013-04-23 19:27:00,
2013-04-23 15:32:00,60.5,39.6,30.11,SE,146,4.3,16.1,46,0.00,,,0.00,WeatherDisplay:10.37,2013-04-23 19:32:00,
2013-04-23 15:37:00,60.4,38.4,30.12,ENE,68,4.2,16.1,44,0.00,,,0.00,WeatherDisplay:10.37,2013-04-23 19:37:00,
2013-04-23 15:42:00,60.4,37.8,30.11,NE,39,6.2,16.1,43,0.00,,,0.00,WeatherDisplay:10.37,2013-04-23 19:42:00,
2013-04-23 15:47:00,60.2,37.0,30.11,NE,55,7.6,16.1,42,0.00,,,0.00,WeatherDisplay:10.37,2013-04-23 19:47:00,
2013-04-23 15:52:00,60.0,38.0,30.10,East,85,4.2,16.1,44,0.00,,,0.00,WeatherDisplay:10.37,2013-04-23 19:52:00,
2013-04-23 15:57:00,60.7,38.6,30.10,ENE,58,1.6,16.1,44,0.00,,,0.00,WeatherDisplay:10.37,2013-04-23 19:57:00,
2013-04-23 16:02:00,61.1,38.4,30.09,NE,54,6.2,16.1,43,0.00,,,0.00,WeatherDisplay:10.37,2013-04-23 20:02:00,
2013-04-23 16:07:00,61.3,39.2,30.10,ENE,77,4.8,16.1,44,0.00,,,0.00,WeatherDisplay:10.37,2013-04-23 20:07:00,
2013-04-23 16:12:00,61.2,38.5,30.09,SSW,197,6.8,16.1,43,0.00,,,0.00,WeatherDisplay:10.37,2013-04-23 20:12:00,
2013-04-23 16:17:00,61.4,39.9,30.10,East,92,2.9,16.1,45,0.00,,,0.00,WeatherDisplay:10.37,2013-04-23 20:17:00,
2013-04-23 16:22:00,61.6,39.5,30.08,SSE,161,3.3,16.1,44,0.00,,,0.00,WeatherDisplay:10.37,2013-04-23 20:22:00,
2013-04-23 16:27:00,61.8,38.4,30.08,East,94,6.0,16.1,42,0.00,,,0.00,WeatherDisplay:10.37,2013-04-23 20:27:00,
2013-04-23 16:32:00,61.4,38.1,30.07,ESE,110,4.5,16.1,42,0.00,,,0.00,WeatherDisplay:10.37,2013-04-23 20:32:00,
2013-04-23 16:37:00,61.3,38.6,30.08,East,93,5.1,16.1,43,0.00,,,0.00,WeatherDisplay:10.37,2013-04-23 20:37:00,
2013-04-23 16:42:00,61.5,38.8,30.07,ENE,76,5.7,16.1,43,0.00,,,0.00,WeatherDisplay:10.37,2013-04-23 20:42:00,
2013-04-23 16:47:00,61.3,38.0,30.08,ENE,67,5.6,16.1,42,0.00,,,0.00,WeatherDisplay:10.37,2013-04-23 20:47:00,
2013-04-23 16:52:00,61.2,37.9,30.07,East,95,5.6,16.1,42,0.00,,,0.00,WeatherDisplay:10.37,2013-04-23 20:52:00,
2013-04-23 16:57:00,61.4,38.1,30.07,ENE,77,4.7,16.1,42,0.00,,,0.00,WeatherDisplay:10.37,2013-04-23 20:57:00,
2013-04-23 17:02:00,61.5,38.2,30.07,ENE,61,6.3,16.1,42,0.00,,,0.00,WeatherDisplay:10.37,2013-04-23 21:02:00,
2013-04-23 17:07:00,61.3,38.0,30.07,East,84,5.4,16.1,42,0.00,,,0.00,WeatherDisplay:10.37,2013-04-23 21:07:00,
2013-04-23 17:12:00,61.3,36.8,30.06,NE,50,5.0,16.1,40,0.00,,,0.00,WeatherDisplay:10.37,2013-04-23 21:12:00,
2013-04-23 17:17:00,61.7,37.7,30.06,SW,221,4.6,16.1,41,0.00,,,0.00,WeatherDisplay:10.37,2013-04-23 21:17:00,
2013-04-23 17:22:00,61.9,37.3,30.06,East,92,5.1,16.1,40,0.00,,,0.00,WeatherDisplay:10.37,2013-04-23 21:22:00,
2013-04-23 17:27:00,61.6,37.7,30.06,ESE,113,6.3,16.1,41,0.00,,,0.00,WeatherDisplay:10.37,2013-04-23 21:27:00,
2013-04-23 17:32:00,61.5,38.2,30.06,ESE,104,4.3,16.1,42,0.00,,,0.00,WeatherDisplay:10.37,2013-04-23 21:32:00,
2013-04-23 17:37:00,61.6,38.3,30.06,ENE,64,5.0,16.1,42,0.00,,,0.00,WeatherDisplay:10.37,2013-04-23 21:37:00,
2013-04-23 17:42:00,61.2,37.3,30.06,ENE,65,6.0,16.1,41,0.00,,,0.00,WeatherDisplay:10.37,2013-04-23 21:42:00,
2013-04-23 17:47:00,61.4,38.7,30.06,East,96,2.9,16.1,43,0.00,,,0.00,WeatherDisplay:10.37,2013-04-23 21:47:00,
2013-04-23 17:52:00,61.6,37.7,30.06,ENE,71,6.1,16.1,41,0.00,,,0.00,WeatherDisplay:10.37,2013-04-23 21:52:00,
2013-04-23 17:57:00,61.3,37.4,30.06,ESE,103,4.4,16.1,41,0.00,,,0.00,WeatherDisplay:10.37,2013-04-23 21:57:00,
2013-04-23 18:02:00,61.6,38.3,30.05,ESE,114,2.8,16.1,42,0.00,,,0.00,WeatherDisplay:10.37,2013-04-23 22:02:00,
2013-04-23 18:07:00,61.6,37.7,30.06,WNW,295,6.3,16.1,41,0.00,,,0.00,WeatherDisplay:10.37,2013-04-23 22:07:00,
2013-04-23 18:12:00,61.3,37.4,30.05,ENE,71,5.4,16.1,41,0.00,,,0.00,WeatherDisplay:10.37,2013-04-23 22:12:00,
2013-04-23 18:17:00,61.4,37.5,30.05,ENE,78,5.9,16.1,41,0.00,,,0.00,WeatherDisplay:10.37,2013-04-23 22:17:00,
2013-04-23 18:22:00,61.6,37.7,30.06,East,88,2.0,16.1,41,0.00,,,0.00,WeatherDisplay:10.37,2013-04-23 22:22:00,
2013-04-23 18:27:00,61.6,37.0,30.06,ESE,117,3.1,16.1,40,0.00,,,0.00,WeatherDisplay:10.37,2013-04-23 22:27:00,
2013-04-23 18:32:00,61.3,36.8,30.06,East,99,5.2,16.1,40,0.00,,,0.00,WeatherDisplay:10.37,2013-04-23 22:32:00,
2013-04-23 18:37:00,61.2,37.3,30.06,East,88,1.6,16.1,41,0.00,,,0.00,WeatherDisplay:10.37,2013-04-23 22:37:00,
2013-04-23 18:42:00,61.1,37.2,30.06,East,92,2.8,16.1,41,0.00,,,0.00,WeatherDisplay:10.37,2013-04-23 22:42:00,
2013-04-23 18:47:00,61.0,37.1,30.05,SE,134,3.0,16.1,41,0.00,,,0.00,WeatherDisplay:10.37,2013-04-23 22:47:00,
2013-04-23 18:52:00,60.8,36.9,30.05,ESE,113,4.6,16.1,41,0.00,,,0.00,WeatherDisplay:10.37,2013-04-23 22:52:00,
2013-04-23 18:57:00,60.4,36.6,30.05,East,100,3.6,16.1,41,0.00,,,0.00,WeatherDisplay:10.37,2013-04-23 22:57:00,
2013-04-23 19:02:00,60.1,36.3,30.04,ENE,60,2.4,16.1,41,0.00,,,0.00,WeatherDisplay:10.37,2013-04-23 23:02:00,
2013-04-23 19:07:00,59.7,35.9,30.04,East,101,4.3,16.1,41,0.00,,,0.00,WeatherDisplay:10.37,2013-04-23 23:07:00,
2013-04-23 19:12:00,59.4,36.3,30.04,East,85,3.1,16.1,42,0.00,,,0.00,WeatherDisplay:10.37,2013-04-23 23:12:00,
2013-04-23 19:17:00,59.1,36.0,30.04,South,183,2.5,16.1,42,0.00,,,0.00,WeatherDisplay:10.37,2013-04-23 23:17:00,
2013-04-23 19:22:00,59.0,35.9,30.04,ESE,110,1.9,16.1,42,0.00,,,0.00,WeatherDisplay:10.37,2013-04-23 23:22:00,
2013-04-23 19:27:00,58.7,36.2,30.03,NE,44,4.0,16.1,43,0.00,,,0.00,WeatherDisplay:10.37,2013-04-23 23:27:00,
2013-04-23 19:32:00,58.6,36.2,30.03,East,92,3.4,16.1,43,0.00,,,0.00,WeatherDisplay:10.37,2013-04-23 23:32:00,
2013-04-23 19:37:00,58.4,36.0,30.02,East,93,2.9,16.1,43,0.00,,,0.00,WeatherDisplay:10.37,2013-04-23 23:37:00,
2013-04-23 19:42:00,58.3,35.9,30.02,ENE,78,3.7,16.1,43,0.00,,,0.00,WeatherDisplay:10.37,2013-04-23 23:42:00,
2013-04-23 19:47:00,58.1,35.7,30.02,East,81,4.3,16.1,43,0.00,,,0.00,WeatherDisplay:10.37,2013-04-23 23:47:00,
2013-04-23 19:52:00,57.7,35.9,30.02,ENE,61,2.3,16.1,44,0.00,,,0.00,WeatherDisplay:10.37,2013-04-23 23:52:00,
2013-04-23 19:57:00,57.4,36.2,30.02,ENE,60,2.9,16.1,45,0.00,,,0.00,WeatherDisplay:10.37,2013-04-23 23:57:00,
2013-04-23 20:02:00,57.2,35.5,30.02,ESE,121,3.7,16.1,44,0.00,,,0.00,WeatherDisplay:10.37,2013-04-24 00:02:00,
2013-04-23 20:07:00,57.1,35.9,30.02,SE,146,1.7,16.1,45,0.00,,,0.00,WeatherDisplay:10.37,2013-04-24 00:07:00,
2013-04-23 20:12:00,56.9,35.8,30.03,East,100,3.2,16.1,45,0.00,,,0.00,WeatherDisplay:10.37,2013-04-24 00:12:00,
2013-04-23 20:17:00,56.7,35.6,30.02,ENE,74,3.7,16.1,45,0.00,,,0.00,WeatherDisplay:10.37,2013-04-24 00:17:00,
2013-04-23 20:22:00,56.5,35.4,30.02,East,98,2.4,16.1,45,0.00,,,0.00,WeatherDisplay:10.37,2013-04-24 00:22:00,
2013-04-23 20:27:00,56.3,35.2,30.02,East,79,4.1,16.1,45,0.00,,,0.00,WeatherDisplay:10.37,2013-04-24 00:27:00,
2013-04-23 20:32:00,56.3,35.8,30.02,ENE,71,4.0,16.1,46,0.00,,,0.00,WeatherDisplay:10.37,2013-04-24 00:32:00,
2013-04-23 20:37:00,56.2,35.7,30.01,East,79,3.3,16.1,46,0.00,,,0.00,WeatherDisplay:10.37,2013-04-24 00:37:00,
2013-04-23 20:42:00,56.1,35.6,30.01,ENE,65,3.8,16.1,46,0.00,,,0.00,WeatherDisplay:10.37,2013-04-24 00:42:00,
2013-04-23 20:47:00,56.0,35.5,30.01,ENE,75,2.2,16.1,46,0.00,,,0.00,WeatherDisplay:10.37,2013-04-24 00:47:00,
2013-04-23 20:52:00,55.8,35.3,30.01,ESE,111,3.9,10.4,46,0.00,,,0.00,WeatherDisplay:10.37,2013-04-24 00:52:00,
2013-04-23 20:57:00,55.7,35.8,30.01,ESE,121,3.7,10.4,47,0.00,,,0.00,WeatherDisplay:10.37,2013-04-24 00:57:00,
2013-04-23 21:02:00,55.7,35.8,30.01,ENE,57,3.9,10.4,47,0.00,,,0.00,WeatherDisplay:10.37,2013-04-24 01:02:00,
2013-04-23 21:07:00,55.6,35.7,30.01,SSW,212,3.5,10.4,47,0.00,,,0.00,WeatherDisplay:10.37,2013-04-24 01:07:00,
2013-04-23 21:12:00,55.5,35.6,30.01,SE,134,2.0,10.4,47,0.00,,,0.00,WeatherDisplay:10.37,2013-04-24 01:12:00,
2013-04-23 21:17:00,55.5,35.6,30.01,East,97,2.5,10.4,47,0.00,,,0.00,WeatherDisplay:10.37,2013-04-24 01:17:00,
2013-04-23 21:22:00,55.5,35.6,30.01,ENE,58,2.3,10.4,47,0.00,,,0.00,WeatherDisplay:10.37,2013-04-24 01:22:00,
2013-04-23 21:27:00,55.5,35.6,30.01,ESE,103,2.9,10.4,47,0.00,,,0.00,WeatherDisplay:10.37,2013-04-24 01:27:00,
2013-04-23 21:32:00,55.4,36.0,30.01,ESE,103,2.2,10.4,48,0.00,,,0.00,WeatherDisplay:10.37,2013-04-24 01:32:00,
2013-04-23 21:37:00,55.2,35.8,30.01,SSE,149,2.4,10.4,48,0.00,,,0.00,WeatherDisplay:10.37,2013-04-24 01:37:00,
2013-04-23 21:42:00,55.1,35.7,30.01,East,82,2.7,10.4,48,0.00,,,0.00,WeatherDisplay:10.37,2013-04-24 01:42:00,
2013-04-23 21:47:00,55.0,35.7,30.01,SE,132,2.3,10.4,48,0.00,,,0.00,WeatherDisplay:10.37,2013-04-24 01:47:00,
2013-04-23 21:52:00,54.9,36.1,30.01,ESE,121,1.0,10.4,49,0.00,,,0.00,WeatherDisplay:10.37,2013-04-24 01:52:00,
2013-04-23 21:57:00,54.8,36.0,30.01,SE,138,2.3,10.4,49,0.00,,,0.00,WeatherDisplay:10.37,2013-04-24 01:57:00,
2013-04-23 22:02:00,54.8,36.0,30.00,East,82,2.3,10.4,49,0.00,,,0.00,WeatherDisplay:10.37,2013-04-24 02:02:00,
2013-04-23 22:07:00,54.9,36.1,30.00,East,90,2.3,12.0,49,0.00,,,0.00,WeatherDisplay:10.37,2013-04-24 02:07:00,
2013-04-23 22:12:00,54.9,35.6,30.00,ENE,72,1.7,12.0,48,0.00,,,0.00,WeatherDisplay:10.37,2013-04-24 02:12:00,
2013-04-23 22:17:00,54.9,35.6,30.00,SE,127,1.9,12.0,48,0.00,,,0.00,WeatherDisplay:10.37,2013-04-24 02:17:00,
2013-04-23 22:22:00,54.9,35.6,29.99,SE,137,2.8,12.0,48,0.00,,,0.00,WeatherDisplay:10.37,2013-04-24 02:22:00,
2013-04-23 22:27:00,54.9,35.6,29.99,ESE,121,1.9,12.0,48,0.00,,,0.00,WeatherDisplay:10.37,2013-04-24 02:27:00,
2013-04-23 22:32:00,54.8,35.5,29.99,SSE,166,3.4,12.0,48,0.00,,,0.00,WeatherDisplay:10.37,2013-04-24 02:32:00,
2013-04-23 22:37:00,54.7,35.4,29.98,SSE,163,4.1,12.0,48,0.00,,,0.00,WeatherDisplay:10.37,2013-04-24 02:37:00,
2013-04-23 22:42:00,54.8,35.5,29.98,SW,219,1.8,12.0,48,0.00,,,0.00,WeatherDisplay:10.37,2013-04-24 02:42:00,
2013-04-23 22:47:00,54.7,35.4,29.98,East,100,3.1,12.0,48,0.00,,,0.00,WeatherDisplay:10.37,2013-04-24 02:47:00,
2013-04-23 22:52:00,54.6,35.8,29.98,ENE,71,1.5,12.0,49,0.00,,,0.00,WeatherDisplay:10.37,2013-04-24 02:52:00,
2013-04-23 22:57:00,54.5,35.7,29.97,ENE,75,2.3,12.0,49,0.00,,,0.00,WeatherDisplay:10.37,2013-04-24 02:57:00,
2013-04-23 23:02:00,54.3,35.5,29.97,SSW,212,2.7,12.0,49,0.00,,,0.00,WeatherDisplay:10.37,2013-04-24 03:02:00,
2013-04-23 23:07:00,54.2,35.4,29.97,East,99,2.0,12.0,49,0.00,,,0.00,WeatherDisplay:10.37,2013-04-24 03:07:00,
2013-04-23 23:12:00,54.0,35.3,29.96,ESE,116,1.2,12.0,49,0.00,,,0.00,WeatherDisplay:10.37,2013-04-24 03:12:00,
2013-04-23 23:17:00,53.7,35.5,29.96,ESE,105,2.3,12.0,50,0.00,,,0.00,WeatherDisplay:10.37,2013-04-24 03:17:00,
2013-04-23 23:22:00,53.6,35.4,29.96,SE,131,1.3,12.0,50,0.00,,,0.00,WeatherDisplay:10.37,2013-04-24 03:22:00,
2013-04-23 23:27:00,53.5,35.3,29.96,SSW,200,2.0,12.0,50,0.00,,,0.00,WeatherDisplay:10.37,2013-04-24 03:27:00,
2013-04-23 23:32:00,53.4,34.7,29.96,SSW,194,1.9,12.0,49,0.00,,,0.00,WeatherDisplay:10.37,2013-04-24 03:32:00,
2013-04-23 23:37:00,53.4,35.2,29.96,SE,139,1.5,12.0,50,0.00,,,0.00,WeatherDisplay:10.37,2013-04-24 03:37:00,
2013-04-23 23:42:00,53.4,35.2,29.96,SE,137,2.4,12.0,50,0.00,,,0.00,WeatherDisplay:10.37,2013-04-24 03:42:00,
2013-04-23 23:47:00,53.3,35.1,29.95,ENE,60,2.2,12.0,50,0.00,,,0.00,WeatherDisplay:10.37,2013-04-24 03:47:00,
2013-04-23 23:52:00,53.3,35.1,29.95,SE,139,2.7,5.0,50,0.00,,,0.00,WeatherDisplay:10.37,2013-04-24 03:52:00,
2013-04-23 23:57:00,53.3,35.1,29.95,ESE,116,1.4,6.0,50,0.00,,,0.00,WeatherDisplay:10.37,2013-04-24 03:57:00,